DL9LAF-4 Weather Reports


time (UTC)temp
C
wind
direction
speed
KPH
gust
KPH
rain 1hr
cm
rain 24hr
cm
rain mn
cm
humidity
%
barometer
mb
20260506204556 10 45 0.0 0.0 0.00 0.00 0.00 64 988.9
20260506203556 10 45 0.0 0.0 0.00 0.00 0.00 64 988.7
20260506202556 10 45 0.0 0.0 0.00 0.00 0.00 63 988.7
20260506201556 10 45 0.0 0.0 0.00 0.00 0.00 62 988.5
20260506200556 10 45 0.0 0.0 0.00 0.00 0.00 61 988.5
20260506195556 10 45 0.0 0.0 0.00 0.00 0.00 60 988.4
20260506194556 11 45 0.0 0.0 0.00 0.00 0.00 59 988.2
20260506193556 11 45 0.0 0.0 0.00 0.00 0.00 58 988.2
20260506192556 11 45 0.0 0.0 0.00 0.00 0.00 57 988.0
20260506191556 12 45 0.0 0.0 0.00 0.00 0.00 56 988.0
20260506190556 12 45 0.0 0.0 0.00 0.00 0.00 55 988.0
20260506185556 12 45 0.0 0.0 0.00 0.00 0.00 54 987.7
20260506184556 12 45 0.0 0.0 0.00 0.00 0.00 53 987.7
20260506183556 13 45 0.0 0.0 0.00 0.00 0.00 52 987.5
20260506182556 13 45 0.0 0.0 0.00 0.00 0.00 51 987.4
20260506181556 13 45 0.0 0.0 0.00 0.00 0.00 50 987.4
20260506180556 13 315 294.5 0.0 0.00 0.00 0.00 49 987.2
20260506175556 14 45 0.0 0.0 0.00 0.00 0.00 48 987.2
20260506174556 15 315 294.5 0.0 0.00 0.00 0.00 47 987.2
20260506173556 15 67 0.0 0.0 0.00 0.00 0.00 47 987.0
20260506172556 15 315 294.5 0.0 0.00 0.00 0.00 46 987.0
20260506171556 16 67 0.0 0.0 0.00 0.00 0.00 45 986.9
20260506170556 16 67 0.0 0.0 0.00 0.00 0.00 44 987.0
20260506165556 16 22 0.0 0.0 0.00 0.00 0.00 44 987.0
20260506164556 16 45 0.0 0.0 0.00 0.00 0.00 44 986.9
20260506163556 16 45 0.0 0.0 0.00 0.00 0.00 43 986.9
20260506162556 16 45 0.0 0.0 0.00 0.00 0.00 43 986.7
20260506161556 16 225 294.5 0.0 0.00 0.00 0.00 43 986.9
20260506160556 16 45 0.0 0.0 0.00 0.00 0.00 43 986.7
20260506155556 16 45 0.0 0.0 0.00 0.00 0.00 43 986.7
20260506154556 16 315 146.5 0.0 0.00 0.00 0.00 43 986.7
20260506153556 16 315 146.5 0.0 0.00 0.00 0.00 43 986.9
20260506152556 16 45 0.0 0.0 0.00 0.00 0.00 43 986.7
20260506151556 16 45 0.0 0.0 0.00 0.00 0.00 42 986.7
20260506150556 17 315 72.4 0.0 0.00 0.00 0.00 42 986.7
20260506145556 17 315 72.4 0.0 0.00 0.00 0.00 44 986.7
20260506144556 17 67 0.0 0.0 0.00 0.00 0.00 43 986.9
20260506143556 17 67 0.0 0.0 0.00 0.00 0.00 43 986.7
20260506142556 17 22 0.0 0.0 0.00 0.00 0.00 45 986.9
20260506141556 17 22 0.0 0.0 0.00 0.00 0.00 45 986.9
20260506140556 17 22 0.0 0.0 0.00 0.00 0.00 46 987.0
20260506135556 17 337 220.5 0.0 0.00 0.00 0.00 46 986.9
20260506134556 17 45 0.0 0.0 0.00 0.00 0.00 46 986.9
20260506133556 17 292 146.5 0.0 0.00 0.00 0.00 46 986.9
20260506132556 17 270 146.5 0.0 0.00 0.00 0.00 46 986.7
20260506131556 18 22 0.0 0.0 0.00 0.00 0.00 46 986.5
20260506130556 18 22 0.0 0.0 0.00 0.00 0.00 47 986.5
20260506125556 17 270 146.5 0.0 0.00 0.00 0.00 46 986.5
20260506124556 17 22 0.0 0.0 0.00 0.00 0.00 47 986.5
20260506123556 17 337 91.7 0.0 0.00 0.00 0.00 47 986.5
20260506122556 17 45 0.0 0.0 0.00 0.00 0.00 47 986.5
20260506121556 17 270 146.5 0.0 0.00 0.00 0.00 48 986.5
20260506120556 17 45 0.0 0.0 0.00 0.00 0.00 49 986.5
20260506115556 17 45 0.0 0.0 0.00 0.00 0.00 49 986.4
20260506114556 17 45 0.0 0.0 0.00 0.00 0.00 48 986.4
20260506113556 17 22 0.0 0.0 0.00 0.00 0.00 50 986.4
20260506112556 17 22 0.0 0.0 0.00 0.00 0.00 50 986.5
20260506111556 16 45 0.0 0.0 0.00 0.00 0.00 51 986.7
20260506110556 16 45 0.0 0.0 0.00 0.00 0.00 50 986.7
20260506105556 16 22 0.0 0.0 0.00 0.00 0.00 50 986.7
20260506104556 16 45 0.0 0.0 0.00 0.00 0.00 51 986.7
20260506103556 16 45 0.0 0.0 0.00 0.00 0.00 52 986.7
20260506102556 16 22 0.0 0.0 0.00 0.00 0.00 52 986.7
20260506101556 16 22 0.0 0.0 0.00 0.00 0.00 52 986.7
20260506100556 15 337 17.7 0.0 0.00 0.00 0.00 54 986.7
20260506095556 15 45 0.0 0.0 0.00 0.00 0.00 54 986.9
20260506094556 15 22 0.0 0.0 0.00 0.00 0.00 56 986.9
20260506093556 15 22 0.0 0.0 0.00 0.00 0.00 57 987.0
20260506092556 15 270 146.5 0.0 0.00 0.00 0.00 57 987.0
20260506091556 15 22 0.0 0.0 0.00 0.00 0.00 59 987.0
20260506090556 14 22 0.0 0.0 0.00 0.00 0.00 59 986.9
20260506085556 14 22 0.0 0.0 0.00 0.00 0.00 61 986.7
20260506084556 13 22 0.0 0.0 0.00 0.00 0.00 61 986.9
20260506083556 13 22 0.0 0.0 0.00 0.00 0.00 63 986.9
20260506082556 13 22 0.0 0.0 0.00 0.00 0.00 64 986.9
20260506081556 13 22 0.0 0.0 0.00 0.00 0.00 66 986.7
20260506080556 12 22 0.0 0.0 0.00 0.00 0.00 66 986.7
20260506072556 11 45 0.0 0.0 0.00 0.00 0.00 71 986.7
20260506071556 11 0 0.0 0.0 0.00 0.00 0.00 73 986.7
20260506070556 11 0 0.0 0.0 0.00 0.00 0.00 75 986.7
20260506061555 8 315 294.5 0.0 0.00 0.00 0.00 84 986.7
20260506060556 7 22 0.0 0.0 0.00 0.00 0.00 85 986.7
20260506050555 5 315 294.5 0.0 0.00 0.00 0.00 87 986.7
20260506044555 5 22 0.0 0.0 0.00 0.00 0.00 86 986.7
20260506043555 5 22 0.0 0.0 0.00 0.00 0.00 86 986.7
20260506042555 5 22 0.0 0.0 0.00 0.00 0.00 86 986.7
20260506041555 5 22 0.0 0.0 0.00 0.00 0.00 86 986.7
20260506040555 4 22 0.0 0.0 0.00 0.00 0.00 85 986.5
20260506035555 4 22 0.0 0.0 0.00 0.00 0.00 85 986.7
20260506034555 4 22 0.0 0.0 0.00 0.00 0.00 85 986.5
20260506033555 4 22 0.0 0.0 0.00 0.00 0.00 84 986.7
20260506032555 4 270 294.5 0.0 0.00 0.00 0.00 84 986.5
20260506031555 4 22 0.0 0.0 0.00 0.00 0.00 84 986.7
20260506030555 4 22 0.0 0.0 0.00 0.00 0.00 84 986.9
20260506025555 4 22 0.0 0.0 0.00 0.00 0.00 83 986.7
20260506024555 4 270 294.5 0.0 0.00 0.00 0.00 83 986.9
20260506023555 4 22 0.0 0.0 0.00 0.00 0.00 83 987.0
20260506022555 4 337 146.5 0.0 0.00 0.00 0.00 83 987.0
20260506021555 5 270 294.5 0.0 0.00 0.00 0.00 82 987.2
20260506020555 5 270 294.5 0.0 0.00 0.00 0.00 82 987.2
20260506015555 5 270 294.5 0.0 0.00 0.00 0.00 82 987.0
20260506014555 5 22 0.0 0.0 0.00 0.00 0.00 82 987.2
20260506013555 5 22 0.0 0.0 0.00 0.00 0.00 81 987.4
20260506012555 5 22 0.0 0.0 0.00 0.00 0.00 81 987.4
20260506011555 5 22 0.0 0.0 0.00 0.00 0.00 81 987.4
20260506010555 5 22 0.0 0.0 0.00 0.00 0.00 81 987.4
20260506005555 5 22 0.0 0.0 0.00 0.00 0.00 81 987.4
20260506004555 5 337 146.5 0.0 0.00 0.00 0.00 80 987.5
20260506003555 5 337 146.5 0.0 0.00 0.00 0.00 80 987.4
20260506002555 5 337 146.5 0.0 0.00 0.00 0.00 79 987.4
20260506001555 6 22 0.0 0.0 0.00 0.00 0.00 79 987.2
20260506000555 6 22 0.0 0.0 0.00 0.00 0.00 79 987.4
20260505235555 6 337 146.5 0.0 0.00 0.00 0.00 78 987.5
20260505234555 6 22 0.0 0.0 0.00 0.00 0.00 78 987.7
20260505233555 6 22 0.0 0.0 0.00 0.00 0.00 78 987.7
20260505232555 6 270 294.5 0.0 0.00 0.00 0.00 78 987.7
20260505231555 6 270 294.5 0.0 0.00 0.00 0.00 78 987.7
20260505230555 7 22 0.0 0.0 0.00 0.00 0.00 77 987.7
20260505225555 7 22 0.0 0.0 0.00 0.00 0.00 77 987.7
20260505224555 7 22 0.0 0.0 0.00 0.00 0.00 77 987.7
20260505223555 7 22 0.0 0.0 0.00 0.00 0.00 77 987.7
20260505222555 7 22 0.0 0.0 0.00 0.00 0.00 76 987.7
20260505221555 7 22 0.0 0.0 0.00 0.00 0.00 76 987.7
20260505220555 7 22 0.0 0.0 0.00 0.00 0.00 76 987.7
20260505215555 7 22 0.0 0.0 0.00 0.00 0.00 76 987.7
20260505214555 7 22 0.0 0.0 0.00 0.00 0.00 76 987.9
20260505213555 7 22 0.0 0.0 0.00 0.00 0.00 76 988.0
20260505212555 7 22 0.0 0.0 0.00 0.00 0.00 76 987.9
20260505211555 7 22 0.0 0.0 0.00 0.00 0.00 76 988.0
20260505210555 8 22 0.0 0.0 0.00 0.00 0.00 76 987.9
20260505205555 8 22 0.0 0.0 0.00 0.00 0.00 76 987.7